Flag for Germany Weather past 2 weeks in Bad Hersfeld, Hesse, Germany

Now
39 °F

Partly sunny.


Feels Like: 32 °F
Forecast: 33 / 47 °F
Wind: 10 mph from South

Location: Fritzlar Airport

Current Time: Feb 28, 2015 at 2:11:33 PM

Latest Report: Feb 28, 2015 at 1:20 PM


Visibility: N/A

Pressure: 30.09 "Hg

Humidity: 70%

Dew point: 30 °F

Location of Bad HersfeldLocation

Historic Weather in Bad Hersfeld — Graph

°F

Bad Hersfeld temperature yesterday

Maximum temperature yesterday: 41 °F (at 12:20 AM)
Minimum temperature yesterday: 34 °F (at 8:20 AM)
Average temperature yesterday: 38 °F

Past Weeks' High & Low Weather Summary

 TemperatureHumidityPressure
High48 °F (Feb 21, 12:20 AM)100% (Feb 13, 11:20 PM)30.74 "Hg (Feb 13, 11:20 PM)
Low21 °F (Feb 16, 7:20 AM)49% (Feb 22, 3:20 PM)29.39 "Hg (Feb 21, 7:20 AM)
Average36 °F84%29.99 "Hg
* Reported Feb 13 12:02 PM — Feb 28 12:20 PM, Bad Hersfeld, Weather by CustomWeather, © 2015

Note: Actual official high and low records may vary slightly from our data, if they occured in-between our weather recording intervals... More about our weather records

Advertising

Bad Hersfeld weather history for previous 24 hours

 ConditionsComfort  
Time TempWeatherWind HumidityBarometerVisibility
12:20 PM
Sat, Feb 28
37 °FPassing clouds.10 mph81%30.12 "HgN/A
11:20 AM39 °FPassing clouds.13 mph75%30.12 "HgN/A
10:20 AM37 °FPassing clouds.8 mph81%30.12 "HgN/A
9:20 AM34 °FFog.5 mph93%30.15 "HgN/A
8:51 AM34 °FFog.1 mph87%30.15 "HgN/A
8:20 AM30 °FFog.1 mph93%30.15 "Hg1 mi
7:47 AM30 °FFog.2 mph93%30.15 "HgN/A
7:20 AM28 °FIce fog.2 mph100%30.12 "Hg0 mi
6:47 AM30 °FIce fog.1 mph100%30.12 "Hg0 mi
6:20 AM32 °FPassing clouds.2 mph93%30.12 "HgN/A
5:20 AM32 °FPassing clouds.3 mph93%30.12 "HgN/A
4:20 AM34 °FPassing clouds.7 mph93%30.12 "HgN/A
3:20 AM32 °FPassing clouds.7 mph100%30.12 "HgN/A
2:20 AM32 °FPassing clouds.3 mph93%30.12 "HgN/A
1:20 AM34 °FPassing clouds.2 mph93%30.12 "HgN/A
12:20 AM36 °FPassing clouds.2 mph93%30.12 "HgN/A
11:20 PM
Fri, Feb 27
37 °FPassing clouds.2 mph81%30.09 "HgN/A
10:20 PM39 °FPartly cloudy.5 mph81%30.09 "HgN/A
9:20 PM37 °FPartly cloudy.2 mph93%30.07 "HgN/A
8:20 PM39 °FPassing clouds.2 mph87%30.07 "HgN/A
7:20 PM39 °FDrizzle. Overcast.5 mph87%30.04 "HgN/A
6:20 PM39 °FLight rain. Overcast.6 mph87%30.01 "HgN/A
5:20 PM39 °FLight rain. More clouds than sun.8 mph87%29.98 "HgN/A
4:20 PM39 °FLight rain. Mostly cloudy.9 mph87%29.95 "HgN/A
3:20 PM39 °FDrizzle. Partly sunny.3 mph93%29.92 "Hg6 mi
2:20 PM37 °FDrizzle. Partly sunny.5 mph93%29.92 "Hg5 mi
Weather by CustomWeather, © 2015

See weather overviewHow to use our weather pages